Regional Weather Roundup
Issued by NWS

Home | Current Version | Previous Version | Graphics & Text | Print | Product List | Glossary On
Versions: 1 2 3 4 5 6 7 8 9 10 11 12 13 14 15 16 17 18 19 20 21 22 23 24 25 26 27 28 29 30 31 32 33 34 35 36 37 38 39 40 41 42 43 44 45 46 47 48 49 50
000
ASUS43 KLSX 261459
RWRMO

WEATHER SUMMARY FOR MISSOURI
NATIONAL WEATHER SERVICE SPRINGFIELD MO
1000 AM CDT TUE MAY 26 2015

NOTE: "FAIR" INDICATES FEW OR NO CLOUDS BELOW 12,000 FEET WITH NO
       SIGNIFICANT WEATHER AND/OR OBSTRUCTIONS TO VISIBILITY.
       CURRENT SKY AND/OR WEATHER CONDITIONS ARE NOT AVAILABLE FOR
       CHILLICOTHE AND FARMINGTON.

MOZ001>031-035>038-043-044-053-054-261600-
...NORTHERN AND WESTERN MISSOURI...

CITY           SKY/WX    TMP DP  RH WIND       PRES   REMARKS
KANSAS CTY INT PTSUNNY   67  62  84 SW15      29.84S
KANSAS C DTWN  MOSUNNY   69  61  75 S17       29.85S
LEE`S SUMMIT   PTSUNNY   66  60  81 SW12      29.87S
ST JOSEPH      CLOUDY    65  60  84 S9        29.82F
KIRKSVILLE     CLOUDY    66  61  84 W10G21    29.81R

$$
MOZ066>068-077>081-088>096-101>105-261600-
...SOUTHWEST MISSOURI...

CITY           SKY/WX    TMP DP  RH WIND       PRES   REMARKS
SPRINGFIELD    CLOUDY    65  58  78 SW12      29.96R
JOPLIN         CLOUDY    65  59  81 SW10      29.96R

$$
MOZ032>034-039>042-045>050-055>058-069>072-261600-
...CENTRAL MISSOURI...

CITY           SKY/WX    TMP DP  RH WIND       PRES   REMARKS
COLUMBIA       CLOUDY    67  61  81 SW17G28   29.87R
JEFFERSON CITY CLOUDY    68  60  75 SW17G23   29.87S
ROLLA          CLOUDY    66  60  81 SW16G23   29.89S
SEDALIA        CLOUDY    66  61  84 SW12G20   29.89S
OSAGE BEACH    CLOUDY    66  59  77 SW16G28   29.91R

$$
MOZ051-052-059>065-261600-
...EAST CENTRAL MISSOURI...

CITY           SKY/WX    TMP DP  RH WIND       PRES   REMARKS
ST LOUIS INTL  PTSUNNY   73  63  70 SW18G25   29.87F
SPIRIT OF STL  PTSUNNY   71  62  73 SW10G24   29.87R
ST CHARLES     MOSUNNY   72  63  73 SW20G28   29.86S

$$
MOZ072>076-082>087-097>100-106>115-261600-
...SOUTH CENTRAL AND SOUTHEAST MISSOURI...

CITY           SKY/WX    TMP DP  RH WIND       PRES   REMARKS
CAPE GIRARDEAU CLOUDY    71  64  78 S17       29.98R
FARMINGTON     PTSUNNY   70  61  73 SW16G24   29.98R
POPLAR BLUFF   PTSUNNY   70  62  76 SW12      29.98S
WEST PLAINS    CLOUDY    65  59  81 SW13G20   29.99S

$$


USA.gov is the U.S. government's official web portal to all federal, state and local government web resources and services.